Total_Precipitation_Accumulation
0.42 0.42 0.40 0.40 0.35 0.34 0.39 0.44 0.75 1.09 1.50 1.93 2.08 2.03 1.96 1.86 1.64 1.35 1.24 1.25 1.19 1.14 1.15 1.11 1.05 1.03 0.94 0.94 0.96 1.11 1.12 1.06 0.97 0.88 0.85 0.87 0.86 0.84 0.81 0.77 0.71 0.70 0.68 0.65
0.38 0.30 0.35 0.40 0.41 0.44 0.51 0.56 0.77 1.21 1.78 2.13 2.20 2.08 2.02 1.95 1.77 1.64 1.55 1.47 1.41 1.33 1.31 1.30 1.23 1.19 1.08 1.07 1.09 1.13 1.19 1.27 1.27 1.20 1.12 1.09 0.99 0.87 0.84 0.81 0.73 0.62 0.56 0.55
0.61 0.35 0.50 0.85 0.69 0.64 0.72 0.79 0.99 1.53 1.85 1.84 1.93 2.05 2.17 2.22 2.08 1.92 1.81 1.71 1.66 1.60 1.52 1.46 1.40 1.37 1.33 1.25 1.22 1.22 1.27 1.30 1.26 1.25 1.23 1.17 1.04 0.92 0.88 0.85 0.80 0.76 0.63 0.58
0.68 0.73 1.24 1.16 0.65 0.65 0.84 0.96 1.02 1.23 1.39 1.48 1.53 1.66 1.77 1.87 1.93 1.90 1.74 1.66 1.65 1.65 1.64 1.61 1.48 1.42 1.39 1.32 1.28 1.28 1.30 1.29 1.25 1.15 1.11 1.03 0.97 0.95 0.89 0.81 0.78 0.75 0.69 0.63
0.77 1.04 1.24 1.08 0.64 0.62 1.03 1.52 1.22 1.15 1.08 1.02 1.02 1.16 1.52 1.70 1.76 1.88 1.88 1.76 1.70 1.65 1.58 1.53 1.46 1.40 1.37 1.36 1.33 1.31 1.28 1.19 1.12 1.04 0.99 0.92 0.91 0.84 0.75 0.68 0.65 0.61 0.57 0.53
0.84 1.21 1.51 1.38 0.64 0.46 0.88 1.88 1.46 1.24 1.09 1.01 1.13 1.38 1.46 1.46 1.46 1.53 1.61 1.62 1.50 1.36 1.29 1.32 1.33 1.32 1.30 1.30 1.27 1.22 1.05 0.89 0.82 0.84 0.84 0.80 0.74 0.67 0.62 0.60 0.59 0.51 0.46 0.45
0.93 1.30 1.52 0.80 0.42 0.59 1.42 1.85 1.45 1.22 1.08 1.03 1.25 1.34 1.16 1.11 1.18 1.21 1.24 1.22 1.14 1.07 1.12 1.19 1.20 1.15 1.13 1.10 1.08 1.00 0.91 0.78 0.73 0.72 0.67 0.64 0.62 0.60 0.57 0.53 0.57 0.55 0.52 0.47
1.03 1.40 1.53 0.65 0.50 0.89 1.12 0.96 0.97 0.97 0.91 0.87 0.84 0.76 0.80 0.86 0.91 0.88 0.88 0.90 0.86 0.86 0.92 0.96 0.93 0.95 1.02 1.00 0.90 0.84 0.87 0.81 0.75 0.66 0.55 0.54 0.64 0.61 0.57 0.60 0.63 0.61 0.57 0.51
1.01 1.23 1.01 0.57 0.53 0.62 0.66 0.73 0.72 0.70 0.66 0.56 0.52 0.50 0.61 0.61 0.61 0.60 0.60 0.67 0.70 0.70 0.73 0.81 0.81 0.84 0.90 0.91 0.80 0.79 0.86 0.84 0.72 0.58 0.59 0.59 0.62 0.59 0.52 0.50 0.47 0.44 0.43 0.43
0.72 0.80 0.64 0.54 0.51 0.48 0.45 0.48 0.46 0.48 0.48 0.41 0.39 0.44 0.51 0.52 0.49 0.45 0.47 0.49 0.57 0.59 0.59 0.66 0.68 0.73 0.78 0.73 0.70 0.83 0.92 0.84 0.67 0.55 0.52 0.51 0.50 0.44 0.38 0.38 0.37 0.36 0.34 0.33
0.70 0.73 0.69 0.68 0.48 0.38 0.33 0.31 0.31 0.34 0.36 0.33 0.33 0.40 0.41 0.42 0.43 0.43 0.44 0.46 0.51 0.55 0.54 0.51 0.54 0.60 0.57 0.58 0.69 0.92 0.89 0.74 0.60 0.48 0.44 0.42 0.35 0.28 0.23 0.21 0.19 0.24 0.25 0.24
0.64 0.59 0.69 0.75 0.53 0.37 0.35 0.31 0.29 0.27 0.29 0.33 0.35 0.38 0.35 0.33 0.36 0.39 0.41 0.42 0.50 0.50 0.45 0.46 0.51 0.53 0.50 0.51 0.60 0.79 0.79 0.60 0.48 0.42 0.37 0.31 0.27 0.26 0.18 0.13 0.11 0.10 0.12 0.13
0.34 0.34 0.40 0.39 0.32 0.28 0.27 0.28 0.29 0.27 0.28 0.32 0.35 0.35 0.32 0.30 0.30 0.34 0.39 0.41 0.46 0.46 0.41 0.41 0.44 0.45 0.43 0.41 0.46 0.59 0.62 0.46 0.35 0.31 0.32 0.29 0.27 0.32 0.33 0.20 0.11 0.09 0.10 0.11
0.18 0.23 0.28 0.29 0.31 0.26 0.26 0.28 0.28 0.26 0.27 0.32 0.35 0.32 0.30 0.28 0.27 0.30 0.33 0.32 0.28 0.29 0.33 0.37 0.36 0.34 0.29 0.26 0.33 0.37 0.34 0.24 0.21 0.24 0.24 0.22 0.20 0.23 0.26 0.30 0.30 0.24 0.16 0.12
0.17 0.20 0.26 0.30 0.31 0.28 0.29 0.31 0.30 0.29 0.28 0.30 0.29 0.27 0.25 0.23 0.22 0.22 0.21 0.19 0.21 0.26 0.28 0.26 0.28 0.30 0.22 0.19 0.21 0.22 0.21 0.19 0.16 0.15 0.14 0.14 0.14 0.15 0.15 0.20 0.29 0.31 0.23 0.15
0.21 0.21 0.23 0.28 0.32 0.32 0.32 0.35 0.34 0.31 0.26 0.24 0.23 0.23 0.21 0.18 0.16 0.15 0.15 0.16 0.22 0.26 0.24 0.23 0.25 0.20 0.16 0.17 0.17 0.16 0.14 0.12 0.13 0.12 0.12 0.11 0.11 0.12 0.14 0.17 0.21 0.23 0.22 0.17
0.27 0.26 0.23 0.23 0.25 0.29 0.26 0.23 0.24 0.24 0.23 0.21 0.19 0.18 0.16 0.14 0.14 0.15 0.15 0.15 0.20 0.22 0.21 0.21 0.19 0.12 0.10 0.10 0.12 0.11 0.08 0.07 0.07 0.08 0.10 0.10 0.10 0.11 0.12 0.13 0.17 0.18 0.15 0.13
0.27 0.23 0.20 0.19 0.19 0.20 0.20 0.19 0.17 0.20 0.20 0.17 0.14 0.13 0.12 0.13 0.14 0.13 0.13 0.12 0.14 0.18 0.17 0.14 0.12 0.09 0.07 0.07 0.09 0.08 0.07 0.07 0.07 0.08 0.08 0.08 0.08 0.09 0.10 0.12 0.13 0.14 0.14 0.13
0.15 0.12 0.12 0.12 0.12 0.12 0.15 0.16 0.14 0.15 0.15 0.12 0.11 0.11 0.12 0.11 0.10 0.10 0.10 0.12 0.14 0.18 0.15 0.12 0.08 0.07 0.06 0.05 0.05 0.06 0.06 0.06 0.06 0.06 0.05 0.05 0.06 0.07 0.08 0.08 0.09 0.11 0.13 0.15
0.09 0.09 0.09 0.09 0.09 0.10 0.12 0.14 0.11 0.11 0.11 0.10 0.09 0.09 0.09 0.08 0.08 0.08 0.09 0.13 0.15 0.13 0.11 0.10 0.06 0.06 0.05 0.04 0.03 0.04 0.05 0.04 0.04 0.04 0.04 0.05 0.05 0.05 0.06 0.06 0.08 0.10 0.13 0.15
0.09 0.08 0.08 0.08 0.09 0.09 0.12 0.12 0.11 0.11 0.09 0.08 0.08 0.08 0.07 0.07 0.07 0.08 0.10 0.12 0.11 0.10 0.09 0.06 0.06 0.04 0.03 0.03 0.02 0.02 0.02 0.03 0.03 0.03 0.03 0.04 0.04 0.04 0.05 0.07 0.09 0.11 0.12 0.13
0.10 0.08 0.08 0.09 0.10 0.13 0.14 0.12 0.10 0.09 0.09 0.08 0.07 0.06 0.07 0.07 0.08 0.09 0.09 0.09 0.09 0.07 0.06 0.05 0.04 0.03 0.02 0.02 0.02 0.02 0.02 0.02 0.03 0.02 0.03 0.03 0.03 0.04 0.06 0.07 0.07 0.08 0.09 0.09
0.16 0.13 0.12 0.13 0.13 0.15 0.14 0.12 0.09 0.09 0.09 0.08 0.07 0.07 0.08 0.09 0.09 0.07 0.06 0.06 0.07 0.05 0.05 0.05 0.03 0.02 0.01 0.02 0.02 0.02 0.01 0.01 0.02 0.02 0.02 0.03 0.03 0.04 0.05 0.05 0.05 0.06 0.07 0.08
0.26 0.21 0.18 0.18 0.18 0.19 0.17 0.13 0.08 0.07 0.08 0.08 0.09 0.09 0.10 0.09 0.07 0.04 0.03 0.05 0.06 0.04 0.03 0.03 0.02 0.01 0.01 0.01 0.02 0.02 0.02 0.01 0.02 0.02 0.02 0.02 0.02 0.03 0.04 0.04 0.04 0.04 0.05 0.06
0.25 0.27 0.24 0.24 0.29 0.26 0.19 0.13 0.09 0.08 0.09 0.09 0.10 0.10 0.09 0.06 0.06 0.05 0.04 0.05 0.04 0.02 0.02 0.01 0.01 0.01 0.01 0.02 0.02 0.01 0.01 0.01 0.02 0.03 0.02 0.02 0.02 0.02 0.03 0.04 0.04 0.04 0.05 0.06
0.32 0.37 0.34 0.30 0.28 0.24 0.16 0.13 0.13 0.12 0.12 0.12 0.11 0.10 0.08 0.06 0.05 0.05 0.04 0.04 0.03 0.02 0.02 0.01 0.01 0.01 0.02 0.02 0.02 0.01 0.02 0.02 0.02 0.02 0.02 0.02 0.03 0.03 0.03 0.04 0.05 0.05 0.06 0.06
0.42 0.42 0.38 0.33 0.25 0.19 0.16 0.14 0.15 0.14 0.14 0.16 0.13 0.09 0.08 0.06 0.05 0.05 0.04 0.04 0.03 0.02 0.02 0.02 0.01 0.02 0.02 0.02 0.02 0.02 0.02 0.02 0.03 0.03 0.03 0.03 0.02 0.03 0.03 0.04 0.05 0.06 0.06 0.05